Temp
87 87 87 87 88 89 88 88 89 88 88 90 90 90 90 90 91 91 91 90 89 90 89 89 89 88 89 89 88 87 86 86 87 87 86 86 86 86 86 86 86 86
87 87 87 88 88 88 89 89 89 88 88 89 90 91 91 91 91 91 90 90 90 89 89 90 89 88 88 88 87 86 85 85 85 89 86 85 86 86 87 86 86 86
87 87 88 88 89 89 91 90 89 89 90 90 90 90 91 92 91 90 90 90 90 90 89 89 89 88 88 88 87 87 86 85 85 88 86 85 86 86 86 89 87 86
87 87 89 89 89 89 89 89 89 89 90 90 90 92 92 92 91 91 90 89 89 89 90 90 89 90 88 88 87 87 87 86 87 87 86 86 85 86 86 87 87 87
87 88 89 89 90 89 89 89 90 90 90 90 91 91 90 89 90 91 90 89 89 90 90 89 89 89 88 87 87 86 86 87 87 86 85 85 85 85 87 86 85 86
88 88 88 88 89 89 89 89 89 91 91 92 90 92 91 90 90 90 90 90 91 91 91 90 89 89 89 88 87 86 87 88 88 86 85 85 86 86 87 86 85 84
88 88 88 89 89 89 89 89 89 89 91 91 91 90 91 90 89 89 90 90 91 89 90 89 88 88 89 87 86 86 86 87 88 86 85 85 85 85 87 86 84 84
89 90 89 89 89 89 89 90 90 89 90 90 91 90 91 92 90 91 90 90 91 89 89 90 88 88 90 88 86 86 86 87 87 85 84 84 85 84 85 86 84 83
89 90 89 89 90 90 92 92 92 90 91 90 91 92 91 90 91 91 89 89 89 89 88 88 88 88 88 88 87 86 86 87 87 86 84 84 84 84 85 85 84 83
88 89 91 92 91 91 92 93 94 92 91 91 91 93 92 90 91 91 90 88 88 88 88 88 88 88 88 88 87 87 86 86 86 86 86 86 85 85 86 85 85 84
89 90 90 91 92 93 93 94 95 95 93 92 92 92 92 91 90 90 89 88 88 88 88 88 88 88 87 88 88 88 87 88 87 86 86 86 86 86 84 85 85 85
88 90 91 91 91 93 94 95 96 95 95 93 93 92 92 93 91 90 90 88 88 89 88 88 88 88 87 88 89 89 88 88 88 87 87 87 87 87 86 86 86 85
89 89 90 92 90 92 94 95 96 97 96 95 94 93 93 93 94 91 90 89 89 89 89 88 88 88 88 87 88 88 88 87 88 87 87 87 88 88 89 88 88 87
88 89 91 90 91 90 91 93 94 94 93 94 94 93 94 94 94 92 92 91 90 89 89 89 88 88 88 87 87 88 88 87 88 88 88 87 88 88 89 89 89 89
88 89 90 90 90 90 89 90 92 92 92 92 92 93 93 95 94 94 92 90 90 89 89 89 89 88 88 88 87 87 88 88 87 87 87 87 87 88 88 89 89 90
88 88 88 89 89 88 88 89 90 90 91 91 91 92 92 91 92 92 94 92 90 89 89 89 89 89 81 73 76 87 87 88 87 87 87 87 86 86 88 88 89 90
88 88 88 87 88 88 88 88 88 89 89 89 89 90 90 89 90 91 93 93 92 91 89 89 89 88 72 68 69 72 84 87 87 86 86 86 87 85 85 86 88 88
88 88 87 87 87 87 87 88 88 88 88 88 88 89 88 90 89 89 90 92 92 92 91 90 90 76 67 66 67 68 73 87 88 87 87 86 87 86 86 86 87 88
88 88 87 87 87 87 87 87 87 87 87 87 88 88 89 87 88 89 89 89 90 89 91 91 92 73 66 64 66 66 67 77 89 88 87 87 87 86 86 86 86 86
88 88 87 87 87 87 87 87 86 86 87 88 88 88 87 87 88 88 88 87 88 89 88 91 92 72 64 62 64 64 66 72 88 88 88 88 87 87 87 86 85 85
88 88 87 87 87 87 87 86 86 86 87 87 89 88 87 86 87 87 87 88 89 90 89 90 93 69 62 61 61 61 63 69 85 87 87 87 87 87 86 86 86 86
88 88 87 87 87 87 86 86 86 86 86 87 88 89 89 89 88 89 88 88 88 89 89 88 92 67 60 60 60 60 62 77 83 84 85 86 86 86 87 86 86 86
89 89 87 87 87 86 86 86 85 86 86 88 87 88 89 89 88 89 88 90 90 88 87 88 92 73 59 59 59 58 65 81 82 84 84 85 86 86 86 86 85 86
90 89 88 87 87 86 87 87 88 88 88 88 88 88 89 91 90 90 90 90 90 89 91 90 91 76 57 58 58 57 67 80 82 83 83 83 84 86 86 85 85 76
91 89 89 88 87 87 87 87 87 87 89 89 89 89 89 90 90 90 91 90 93 93 77 86 92 79 56 58 56 56 68 81 83 83 82 83 84 84 85 85 85 79
91 89 88 89 88 88 88 88 88 89 89 89 89 90 90 90 91 90 90 91 93 93 93 92 90 90 69 56 56 55 60 80 84 82 82 82 84 84 84 84 83 84
MSLP
1011.73 1011.85 1012.09 1012.29 1012.41 1012.49 1012.73 1013.02 1013.05 1013.34 1013.49 1013.53 1013.82 1013.85 1013.93 1013.85 1013.85 1014.05 1014.26 1014.46 1014.70 1014.97 1015.17 1015.46 1015.70 1015.97 1016.17 1016.34 1016.61 1016.90 1017.09 1017.29 1017.29 1017.38 1017.70 1017.93 1018.14 1018.29 1018.53 1018.66 1018.73 1018.82
1011.26 1011.38 1011.58 1011.78 1011.97 1012.05 1012.17 1012.26 1012.58 1012.82 1013.09 1013.14 1013.14 1013.26 1013.29 1013.41 1013.58 1013.73 1014.02 1014.26 1014.46 1014.66 1014.78 1015.09 1015.34 1015.61 1015.90 1016.14 1016.38 1016.78 1017.02 1017.09 1017.34 1016.93 1017.49 1017.85 1017.90 1018.02 1018.22 1018.34 1018.49 1018.49
1010.82 1010.97 1011.22 1011.53 1011.46 1011.61 1011.73 1011.90 1012.09 1012.34 1012.53 1012.58 1012.70 1012.82 1012.93 1012.97 1013.26 1013.38 1013.58 1013.82 1014.14 1014.29 1014.53 1014.70 1015.02 1015.26 1015.49 1015.78 1016.02 1016.41 1016.70 1016.90 1017.14 1016.82 1017.22 1017.61 1017.61 1017.82 1017.82 1017.90 1018.14 1018.34
1010.26 1010.38 1010.58 1010.85 1010.85 1011.14 1011.29 1011.61 1011.82 1011.97 1012.02 1012.34 1012.38 1012.29 1012.46 1012.53 1012.78 1013.05 1013.26 1013.49 1013.78 1014.02 1014.14 1014.38 1014.61 1014.82 1015.14 1015.41 1015.73 1016.05 1016.26 1016.46 1016.53 1016.58 1017.05 1017.26 1017.41 1017.46 1017.61 1017.61 1017.73 1017.93
1009.61 1009.85 1010.02 1010.26 1010.29 1010.49 1010.85 1011.22 1011.41 1011.49 1011.66 1011.66 1011.82 1011.97 1012.17 1012.34 1012.49 1012.70 1012.93 1013.17 1013.38 1013.66 1013.82 1014.14 1014.29 1014.49 1014.73 1015.09 1015.38 1015.82 1015.93 1016.17 1016.17 1016.41 1016.85 1017.17 1017.17 1017.29 1017.34 1017.46 1017.70 1017.90
1008.90 1009.22 1009.49 1009.78 1009.90 1010.22 1010.53 1010.70 1010.82 1010.93 1011.14 1011.34 1011.41 1011.41 1011.66 1011.90 1012.14 1012.29 1012.46 1012.78 1012.93 1013.17 1013.41 1013.66 1013.97 1014.14 1014.34 1014.70 1015.02 1015.38 1015.53 1015.73 1015.70 1016.09 1016.58 1016.90 1016.93 1016.90 1016.97 1017.22 1017.53 1017.78
1008.41 1008.66 1008.97 1009.09 1009.41 1009.61 1009.97 1010.14 1010.29 1010.46 1010.58 1010.61 1010.82 1011.17 1011.17 1011.49 1011.78 1011.90 1012.05 1012.26 1012.46 1012.70 1012.97 1013.26 1013.61 1013.85 1013.93 1014.26 1014.66 1015.02 1015.17 1015.29 1015.34 1015.73 1016.29 1016.46 1016.61 1016.82 1016.73 1016.97 1017.26 1017.49
1007.61 1007.82 1008.17 1008.49 1008.90 1009.14 1009.46 1009.61 1009.78 1009.93 1010.02 1010.26 1010.53 1010.58 1010.70 1010.97 1011.22 1011.38 1011.58 1011.82 1012.09 1012.34 1012.58 1012.82 1013.17 1013.46 1013.61 1013.82 1014.26 1014.58 1014.90 1014.93 1015.09 1015.46 1015.93 1016.17 1016.29 1016.66 1016.70 1016.70 1016.93 1017.17
1006.97 1007.34 1007.58 1007.97 1008.38 1008.53 1008.78 1008.90 1009.09 1009.29 1009.41 1009.82 1009.97 1010.05 1010.14 1010.38 1010.61 1010.85 1011.14 1011.41 1011.70 1011.93 1012.26 1012.53 1012.78 1013.09 1013.22 1013.41 1013.73 1014.05 1014.41 1014.58 1014.66 1014.93 1015.41 1015.78 1016.05 1016.26 1016.38 1016.38 1016.66 1016.78
1006.58 1006.70 1007.05 1007.38 1007.78 1007.82 1008.09 1008.22 1008.34 1008.61 1008.82 1009.17 1009.34 1009.41 1009.73 1009.90 1010.05 1010.34 1010.66 1011.05 1011.41 1011.66 1011.90 1012.17 1012.46 1012.66 1012.85 1013.05 1013.34 1013.53 1013.85 1014.17 1014.26 1014.46 1014.73 1015.05 1015.38 1015.66 1015.82 1016.02 1016.17 1016.41
1005.97 1006.22 1006.58 1006.82 1007.02 1007.09 1007.38 1007.53 1007.73 1007.90 1008.17 1008.53 1008.78 1009.02 1009.14 1009.46 1009.78 1009.85 1010.26 1010.61 1011.02 1011.29 1011.58 1011.82 1011.97 1012.17 1012.49 1012.66 1012.85 1012.97 1013.22 1013.46 1013.73 1014.02 1014.26 1014.46 1014.70 1014.93 1015.17 1015.41 1015.61 1015.78
1005.34 1005.66 1005.90 1006.14 1006.34 1006.49 1006.66 1006.82 1007.02 1007.26 1007.46 1007.78 1008.02 1008.46 1008.66 1008.82 1009.22 1009.46 1009.73 1010.14 1010.41 1010.70 1010.97 1011.26 1011.46 1011.66 1011.93 1012.17 1012.41 1012.58 1012.70 1012.90 1013.14 1013.46 1013.70 1013.93 1014.14 1014.34 1014.53 1014.73 1014.97 1015.14
1004.66 1004.85 1005.02 1005.34 1005.70 1005.90 1005.97 1006.22 1006.38 1006.49 1006.78 1007.09 1007.29 1007.70 1008.09 1008.38 1008.53 1008.97 1009.17 1009.53 1009.90 1010.17 1010.46 1010.73 1011.02 1011.22 1011.46 1011.70 1011.97 1012.22 1012.34 1012.58 1012.78 1013.02 1013.26 1013.46 1013.58 1013.70 1013.85 1014.05 1014.26 1014.46
1003.82 1004.02 1004.34 1004.66 1004.93 1005.29 1005.58 1005.66 1005.82 1006.02 1006.22 1006.41 1006.73 1007.22 1007.46 1007.70 1007.93 1008.29 1008.66 1008.97 1009.34 1009.61 1009.82 1010.05 1010.46 1010.73 1010.93 1011.17 1011.46 1011.73 1011.90 1012.17 1012.34 1012.58 1012.85 1013.02 1013.14 1013.22 1013.29 1013.46 1013.61 1013.78
1003.14 1003.53 1003.85 1004.22 1004.58 1004.93 1005.26 1005.41 1005.49 1005.66 1005.85 1006.09 1006.34 1006.61 1006.73 1006.93 1007.17 1007.53 1008.09 1008.53 1008.73 1009.02 1009.26 1009.46 1009.82 1010.09 1010.26 1010.53 1011.02 1011.29 1011.34 1011.73 1011.93 1012.14 1012.38 1012.66 1012.82 1012.90 1012.93 1013.02 1013.05 1013.14
1002.66 1003.02 1003.41 1003.73 1004.22 1004.53 1004.78 1004.97 1005.22 1005.38 1005.61 1005.85 1006.02 1006.22 1006.38 1006.58 1006.82 1007.09 1007.41 1007.85 1008.29 1008.49 1008.70 1008.90 1009.09 1009.22 1009.41 1009.85 1010.17 1010.53 1010.85 1011.14 1011.46 1011.70 1011.93 1012.17 1012.49 1012.70 1012.70 1012.66 1012.66 1012.66
1002.34 1002.70 1002.97 1003.46 1003.61 1003.97 1004.29 1004.66 1004.93 1005.09 1005.34 1005.58 1005.73 1005.93 1006.14 1006.34 1006.61 1006.85 1006.93 1007.05 1007.49 1007.85 1008.17 1008.26 1008.34 1008.34 1008.82 1009.29 1009.73 1010.14 1010.34 1010.66 1011.05 1011.38 1011.53 1011.78 1012.02 1012.29 1012.46 1012.46 1012.38 1012.38
1001.85 1002.26 1002.70 1002.97 1003.29 1003.58 1003.78 1004.14 1004.46 1004.78 1005.05 1005.26 1005.46 1005.70 1005.85 1005.93 1006.29 1006.46 1006.58 1006.66 1006.78 1007.02 1007.29 1007.46 1007.49 1007.61 1008.22 1008.70 1009.26 1009.70 1009.97 1010.22 1010.53 1010.90 1011.14 1011.38 1011.49 1011.70 1011.85 1011.93 1012.05 1012.14
1001.53 1001.97 1002.29 1002.61 1002.78 1002.97 1003.41 1003.78 1004.14 1004.49 1004.78 1004.97 1005.17 1005.17 1005.46 1005.78 1005.90 1006.14 1006.29 1006.26 1006.34 1006.58 1006.70 1006.70 1006.85 1007.05 1007.73 1008.34 1008.85 1009.29 1009.66 1009.90 1010.02 1010.29 1010.66 1010.85 1010.97 1011.14 1011.29 1011.49 1011.61 1011.82
1001.14 1001.49 1001.90 1002.14 1002.41 1002.90 1003.26 1003.61 1003.93 1004.17 1004.22 1004.41 1004.70 1004.97 1005.26 1005.46 1005.58 1005.73 1005.82 1005.90 1005.93 1006.09 1006.26 1006.22 1006.26 1006.49 1007.22 1007.85 1008.38 1008.82 1009.22 1009.58 1009.53 1009.73 1010.05 1010.22 1010.38 1010.53 1010.73 1010.90 1011.05 1011.29
1000.70 1001.02 1001.41 1001.85 1002.22 1002.58 1002.97 1003.34 1003.53 1003.78 1004.05 1004.14 1004.29 1004.58 1004.85 1005.05 1005.17 1005.38 1005.34 1005.38 1005.53 1005.66 1005.85 1005.93 1005.70 1005.97 1006.61 1007.17 1007.70 1008.22 1008.66 1009.09 1009.05 1009.26 1009.38 1009.53 1009.58 1009.73 1009.97 1010.17 1010.38 1010.53
999.97 1000.46 1000.93 1001.38 1001.78 1002.14 1002.53 1002.85 1003.02 1003.17 1003.41 1003.46 1003.73 1003.85 1003.90 1004.14 1004.41 1004.46 1004.70 1004.93 1005.09 1005.34 1005.41 1005.49 1005.17 1005.49 1006.02 1006.58 1007.09 1007.70 1008.22 1008.61 1008.53 1008.70 1008.73 1008.78 1008.85 1008.85 1009.05 1009.29 1009.53 1009.85
999.66 1000.22 1000.78 1001.09 1001.38 1001.78 1002.05 1002.22 1002.38 1002.53 1002.66 1002.78 1003.26 1003.29 1003.49 1003.70 1003.73 1003.82 1003.90 1004.14 1004.34 1004.58 1004.90 1004.70 1004.53 1004.85 1005.46 1005.85 1006.49 1007.09 1007.82 1007.85 1007.93 1008.14 1008.26 1008.29 1008.22 1008.17 1008.38 1008.53 1008.73 1008.93
999.26 999.70 1000.22 1000.53 1000.85 1001.17 1001.29 1001.38 1001.49 1001.78 1002.09 1002.14 1002.66 1002.97 1003.14 1002.93 1003.02 1003.26 1003.22 1003.29 1003.61 1003.90 1003.78 1004.09 1004.09 1004.29 1005.14 1005.53 1006.05 1006.73 1006.85 1006.97 1007.26 1007.58 1007.82 1007.85 1007.78 1007.66 1007.70 1007.93 1008.09 1008.34
998.58 998.93 999.34 999.78 1000.14 1000.26 1000.46 1000.90 1001.09 1001.22 1001.34 1001.61 1001.82 1002.05 1002.22 1002.26 1002.46 1002.61 1002.70 1002.73 1002.78 1002.97 1003.26 1003.70 1003.66 1003.93 1004.70 1005.29 1005.73 1006.29 1006.61 1006.46 1006.61 1006.82 1007.22 1007.22 1007.26 1007.34 1007.34 1007.58 1007.70 1007.97
998.02 998.49 998.82 999.17 999.58 999.93 1000.22 1000.46 1000.66 1000.90 1000.97 1001.17 1001.34 1001.46 1001.73 1001.82 1001.93 1002.02 1002.29 1002.34 1002.29 1002.58 1002.73 1002.93 1003.26 1003.29 1003.97 1004.53 1005.22 1005.93 1006.29 1006.14 1006.05 1006.53 1006.53 1006.41 1006.41 1006.53 1006.93 1007.09 1007.29 1007.46
Wind_Speed
15 13 13 13 13 12 12 12 12 12 11 11 11 10 11 10 10 11 11 10 11 11 10 10 10 9 9 9 8 8 7 8 7 8 9 9 8 9 8 9 8 6
19 15 12 12 12 11 12 12 12 12 12 12 11 10 10 10 11 11 11 11 11 11 11 11 11 10 10 9 9 9 8 8 9 7 9 11 8 9 9 10 9 7
19 16 16 16 14 15 15 13 12 12 12 12 12 11 10 10 11 11 11 12 11 11 12 11 12 11 11 10 10 10 9 10 9 9 9 11 9 9 9 9 9 10
18 17 17 17 15 14 14 12 12 12 12 12 13 12 11 10 11 12 12 12 11 11 11 12 12 12 11 11 10 10 10 10 10 9 10 10 9 9 9 8 9 9
19 18 17 16 14 14 13 14 15 14 14 13 12 12 12 12 12 12 12 12 12 12 11 12 12 12 12 11 11 10 11 11 11 10 10 10 9 9 9 9 9 10
18 17 17 15 14 14 14 15 15 15 15 14 14 12 13 13 13 13 13 13 13 13 13 13 13 12 12 12 11 11 11 11 11 12 12 11 11 10 8 9 10 10
19 19 19 16 17 16 16 15 14 15 14 13 12 13 13 14 14 14 14 13 14 13 13 13 13 13 12 12 12 12 12 12 11 12 13 11 11 11 10 10 10 11
20 19 18 17 18 17 17 16 15 15 15 14 14 14 14 14 15 13 13 14 14 13 13 13 13 13 13 12 13 13 13 11 12 13 13 11 11 11 11 9 10 11
19 18 18 19 20 17 19 18 17 16 15 16 15 14 14 14 14 14 14 14 14 13 13 13 13 13 13 13 13 14 14 14 13 13 13 12 13 12 12 11 11 12
19 19 20 20 20 18 20 19 17 16 16 16 16 15 14 14 14 15 14 14 14 14 14 13 14 13 13 13 14 14 14 14 13 13 13 13 13 13 13 13 13 13
21 20 20 21 21 19 21 20 19 17 15 17 16 16 16 14 14 14 14 14 14 14 14 14 14 14 14 14 14 14 14 14 13 13 13 13 13 13 13 13 14 14
21 21 21 22 21 20 21 20 19 18 17 16 17 17 17 16 15 14 14 15 14 14 14 14 14 14 14 14 15 15 13 13 13 13 13 13 13 14 14 14 14 14
21 21 20 21 20 20 18 18 19 20 19 18 17 17 17 17 16 16 14 15 15 14 15 15 15 15 14 14 15 15 14 14 14 14 13 13 13 14 14 15 15 14
20 20 20 19 18 18 18 18 18 18 18 17 16 17 18 18 18 17 15 14 15 15 15 14 14 14 15 15 15 15 13 14 14 14 14 13 13 14 14 14 15 15
18 17 17 17 18 17 18 18 18 17 17 16 16 16 15 17 17 17 16 15 15 15 15 14 14 14 13 14 15 16 14 14 14 14 14 13 13 14 14 14 14 14
17 16 16 17 17 18 18 18 17 16 16 17 17 17 15 15 16 16 16 16 16 16 16 14 14 13 14 18 16 14 15 13 13 14 14 13 13 13 14 15 15 14
15 16 16 18 18 17 16 17 17 16 15 16 16 16 16 15 15 17 17 16 17 16 17 15 14 13 18 19 19 18 14 13 13 13 13 13 13 13 13 14 14 14
15 16 16 17 17 18 18 17 16 17 16 16 16 17 15 15 16 17 16 16 15 17 17 16 15 16 19 21 21 20 17 13 12 12 12 13 13 13 13 13 13 13
15 16 17 17 18 18 16 16 16 17 17 17 18 16 15 16 16 16 17 17 16 17 17 17 16 16 19 21 21 21 21 17 13 12 12 13 13 14 13 13 12 12
16 16 16 17 16 15 15 16 16 17 17 15 14 15 15 16 17 17 16 17 17 17 16 15 17 15 21 21 22 23 22 20 15 14 14 13 13 13 13 14 14 12
17 17 16 15 15 15 15 16 16 16 16 15 15 15 16 16 16 17 16 16 17 16 15 16 15 16 21 23 23 24 23 21 16 15 14 14 14 14 14 15 15 13
18 17 16 15 15 16 17 17 17 18 18 16 15 15 15 15 15 16 17 17 16 18 17 17 16 18 21 23 24 23 25 16 17 17 16 15 15 15 15 14 15 16
15 15 15 15 15 16 17 18 18 18 17 14 16 16 16 16 16 16 16 17 18 19 19 17 18 17 21 24 24 25 20 15 16 15 16 16 16 16 15 15 15 16
15 16 16 17 16 18 18 18 17 15 16 15 16 16 16 17 16 15 16 16 18 20 19 18 18 16 21 22 24 24 22 17 15 16 16 16 16 16 14 14 16 19
16 17 17 17 17 18 17 17 16 16 15 14 16 16 16 15 15 15 15 15 17 19 16 19 18 14 20 21 24 25 21 15 15 15 16 16 15 15 15 15 16 14
15 15 16 16 16 14 13 14 13 13 15 15 15 14 14 15 14 15 17 16 15 16 15 18 19 13 16 23 24 23 25 16 15 15 16 18 17 15 15 16 16 14
Wind_Direction
209 206 207 206 207 208 207 206 205 204 205 206 210 211 212 213 210 210 207 203 201 202 198 196 194 198 210 216 216 216 217 215 218 200 206 197 195 196 195 197 199 209
214 207 207 209 206 205 208 207 205 205 205 206 210 209 210 209 205 205 203 203 201 202 197 194 194 195 200 207 213 215 213 212 214 206 209 201 197 196 200 196 200 199
212 208 210 211 204 203 206 205 207 208 208 208 208 209 208 205 206 202 202 202 203 203 199 196 193 194 197 205 209 213 213 211 214 212 209 205 199 196 201 198 200 199
207 208 211 213 208 204 203 203 205 209 211 209 209 208 207 207 204 203 202 200 204 203 201 198 198 195 195 199 204 213 214 213 211 213 211 209 202 200 200 203 202 197
204 207 211 213 207 205 202 205 209 206 210 210 210 207 207 208 205 205 202 201 204 205 202 201 199 198 193 195 199 211 213 214 210 208 210 211 203 199 202 202 202 203
203 205 205 208 206 203 205 207 208 209 209 210 209 207 208 206 208 207 205 204 203 207 205 203 199 199 195 193 195 206 211 214 206 205 211 211 209 198 202 198 201 204
199 200 203 204 204 204 207 208 208 210 211 211 206 209 207 206 207 208 208 207 208 206 207 204 201 200 196 193 194 200 209 212 204 198 208 211 210 202 202 197 201 205
200 200 200 202 204 205 205 207 208 208 209 208 209 207 207 208 206 207 208 208 209 206 204 204 201 201 198 196 195 195 204 208 204 191 199 199 205 204 200 200 200 206
200 201 200 201 203 204 207 207 207 207 205 207 208 208 206 209 208 208 205 206 208 207 203 203 200 200 202 201 198 196 198 205 199 189 193 196 199 203 201 200 203 207
200 201 201 202 204 207 208 209 208 206 205 208 208 210 207 206 209 209 206 204 206 206 203 200 199 200 201 204 202 198 196 197 195 193 195 197 197 199 202 202 207 209
200 201 202 204 207 207 208 208 209 208 206 208 208 210 210 205 206 208 207 204 206 204 203 202 200 201 202 207 209 203 199 198 196 195 197 198 199 199 202 205 208 213
198 200 203 205 207 209 209 209 210 210 209 206 208 209 209 208 206 206 206 205 206 204 204 203 203 203 203 206 210 208 202 201 198 198 200 200 200 200 201 205 210 213
198 200 203 205 205 208 210 210 211 211 211 210 206 209 208 209 208 207 206 207 206 205 205 204 204 205 205 205 211 213 203 201 201 201 203 202 203 203 203 206 211 214
198 199 201 203 204 205 207 210 210 211 211 210 208 208 210 209 209 206 205 205 205 206 205 204 204 206 205 205 209 212 204 202 203 202 204 205 204 205 206 208 211 215
194 196 199 200 201 202 205 208 210 210 210 210 209 210 210 211 209 208 205 204 204 205 205 204 205 205 204 204 209 209 204 203 203 204 204 205 205 205 207 210 213 216
189 191 194 196 198 200 202 204 207 207 208 209 210 211 210 210 210 209 209 205 204 205 204 205 206 206 200 196 200 204 201 203 203 206 207 208 205 207 207 209 213 217
186 190 190 194 198 198 199 201 204 206 208 208 209 209 210 208 209 210 211 210 207 206 205 207 207 206 190 188 192 196 200 202 203 205 207 208 208 206 208 208 213 216
188 188 191 194 194 197 198 198 199 204 206 206 207 208 208 209 208 210 212 212 211 211 210 209 210 199 182 186 187 188 194 202 206 207 206 209 211 208 208 210 211 214
188 190 192 194 196 196 196 196 198 203 207 207 208 207 207 210 210 209 211 213 214 214 215 213 217 190 183 182 185 187 190 199 211 210 211 211 210 210 209 210 211 212
193 194 195 198 196 195 196 199 200 205 207 208 210 208 211 213 212 212 212 213 214 216 216 219 221 187 181 180 184 186 188 194 211 212 218 218 213 209 210 211 209 209
194 196 198 196 195 195 197 202 204 207 208 209 211 212 212 214 213 213 215 216 216 217 218 220 224 189 180 180 183 184 186 191 205 212 214 217 213 208 213 216 214 210
196 196 196 194 195 195 200 203 206 208 208 207 211 214 216 216 215 216 215 215 218 225 224 222 225 191 180 181 183 184 181 190 202 209 212 212 213 214 213 215 220 220
197 194 194 196 196 196 201 204 205 208 209 205 210 214 214 215 217 216 217 220 221 223 224 225 229 197 182 181 183 181 177 195 200 207 213 215 216 212 211 214 214 213
193 193 194 195 197 200 203 206 207 207 209 205 211 213 217 219 218 220 221 219 219 221 219 222 229 201 182 182 181 179 184 193 196 203 210 213 216 215 213 215 216 209
194 196 197 196 199 204 204 204 205 206 207 205 211 214 218 220 220 222 223 221 222 225 219 224 230 208 178 181 182 181 188 197 197 202 205 211 211 212 212 216 220 207
200 199 201 202 204 205 204 207 208 211 210 209 213 215 218 220 220 222 222 221 221 223 221 221 227 222 177 183 181 183 191 198 206 204 208 208 206 207 208 215 216 213